TimeEDT,TemperatureF,Dew PointF,Humidity,Sea Level PressureIn,VisibilityMPH,Wind Direction,Wind SpeedMPH,Gust SpeedMPH,PrecipitationIn,Events,Conditions,WindDirDegrees,DateUTC
12:53 AM,48.0,39.9,74,30.29,10.0,Calm,Calm,-,N/A,,Clear,0,2013-05-05 04:53:00
1:53 AM,43.0,39.0,86,30.27,10.0,Calm,Calm,-,N/A,,Clear,0,2013-05-05 05:53:00
2:53 AM,41.0,37.9,89,30.27,7.0,Calm,Calm,-,N/A,,Clear,0,2013-05-05 06:53:00
3:53 AM,41.0,37.9,89,30.26,7.0,Calm,Calm,-,N/A,,Clear,0,2013-05-05 07:53:00
4:53 AM,39.0,36.0,89,30.27,8.0,Calm,Calm,-,N/A,,Clear,0,2013-05-05 08:53:00
5:53 AM,37.0,35.1,93,30.27,6.0,Calm,Calm,-,N/A,,Clear,0,2013-05-05 09:53:00
6:53 AM,41.0,39.0,93,30.29,6.0,Calm,Calm,-,N/A,,Clear,0,2013-05-05 10:53:00
7:53 AM,46.0,39.9,79,30.30,9.0,ENE,6.9,-,N/A,,Clear,60,2013-05-05 11:53:00
8:53 AM,48.9,37.9,66,30.30,10.0,ENE,4.6,-,N/A,,Clear,60,2013-05-05 12:53:00
9:53 AM,52.0,36.0,54,30.28,10.0,ENE,3.5,-,N/A,,Clear,60,2013-05-05 13:53:00
10:53 AM,55.9,37.0,49,30.27,10.0,SSE,4.6,-,N/A,,Clear,150,2013-05-05 14:53:00
11:53 AM,59.0,36.0,42,30.25,10.0,Calm,Calm,-,N/A,,Clear,0,2013-05-05 15:53:00
12:53 PM,64.0,37.9,38,30.22,10.0,NE,6.9,-,N/A,,Clear,40,2013-05-05 16:53:00
2:53 PM,70.0,33.1,26,30.18,10.0,SE,9.2,-,N/A,,Clear,140,2013-05-05 18:53:00
3:53 PM,71.1,33.1,25,30.16,10.0,SE,11.5,17.3,N/A,,Clear,130,2013-05-05 19:53:00
4:53 PM,71.1,30.9,23,30.15,10.0,Variable,4.6,-,N/A,,Clear,0,2013-05-05 20:53:00
5:53 PM,66.9,41.0,39,30.16,10.0,SSW,8.1,-,N/A,,Clear,200,2013-05-05 21:53:00
6:53 PM,64.9,39.9,40,30.17,10.0,South,5.8,-,N/A,,Clear,180,2013-05-05 22:53:00
8:53 PM,57.0,39.9,53,30.21,10.0,SSE,4.6,-,N/A,,Clear,150,2013-05-06 00:53:00
9:53 PM,54.0,41.0,62,30.23,10.0,SE,5.8,-,N/A,,Clear,140,2013-05-06 01:53:00
10:53 PM,51.1,42.1,71,30.23,10.0,SE,6.9,-,N/A,,Clear,140,2013-05-06 02:53:00
11:53 PM,50.0,41.0,71,30.24,10.0,Calm,Calm,-,N/A,,Clear,0,2013-05-06 03:53:00